Location: Unspecified
(0.0000°N, 0.0000°E)
Time: 20:29:12
(UTC+00:00)

NLS 7.1/CANX 4 - Visible Passes

Search period start: 14 January 2025 00:00
Search period end: 24 January 2025 00:00
Orbit: 622 x 639 km, 98.4° (Epoch: 14 January)

Date Brightness Start Highest point End Pass type
(mag) Time Alt. Az. Time Alt. Az. Time Alt. Az.
14 Jan ? 19:26:02 10° N 19:30:20 62° WNW 19:34:38 10° SSW visible
15 Jan ? 19:47:00 10° NNW 19:50:50 31° WNW 19:54:42 10° SW visible
16 Jan ? 18:32:08 10° NE 18:35:20 20° ESE 18:38:32 10° SSE visible
16 Jan ? 20:08:35 10° NW 20:11:20 17° WNW 20:14:05 10° WSW visible
17 Jan ? 18:51:48 10° NNE 18:55:51 38° ESE 18:59:53 10° S visible
18 Jan ? 19:12:00 10° NNE 19:16:20 78° ESE 19:20:40 10° S visible
19 Jan ? 19:32:37 10° N 19:36:50 51° WNW 19:41:03 10° SSW visible
20 Jan ? 19:53:42 10° NNW 19:57:19 26° WNW 20:00:57 10° SW visible
21 Jan ? 18:38:19 10° NE 18:41:48 24° ESE 18:45:17 10° SSE visible
21 Jan ? 20:15:34 10° NW 20:17:48 14° WNW 20:20:01 10° WSW visible
22 Jan ? 18:58:07 10° NNE 19:02:16 46° ESE 19:06:26 10° S visible
23 Jan ? 19:18:25 10° N 19:22:45 87° WNW 19:27:06 10° SSW visible
